410P/NEAT-LINEAR (2021)

Japanese version
Home page
Updated on February 20, 2021

---------------------------------------------------------------------

* Profile

Designation 410P/2020 W2
Recovery Date November 16, 2020
Magnitude 20.1 mag
Recoverer D. Rankin (Mount Lemmon)

* Pictures

* Orbital Elements

Epoch 2021 July 5.0 TT = JDT 2459400.5
T 2021 June 23.56893 TT                                 Rudenko
q   3.2469868            (2000.0)            P               Q
n   0.05771185     Peri.  313.09672     -0.05997921     -0.99266629
a   6.6317180      Node   139.98053     +0.95668709     -0.08717370
e   0.5103853      Incl.    9.39380     +0.28487245     +0.08375193
P  17.1
From 73 observations 2005 Jan. 17-2021 Jan. 15, mean residual 0".3.

* Magnitudes Graph

        m1 = 12.0 + 5 log d + 10.0 log r

---------------------------------------------------------------------

The orbital elements are published on M.P.E.C. 2021-B143.
The magnitudes graphs are made with Comet for Windows.

---------------------------------------------------------------------

Copyright(C) Seiichi Yoshida (comet@aerith.net). All rights reserved.